| time (UTC) | temp F | wind direction | speed MPH | gust MPH | rain 1hr in | rain 24hr in | rain mn in | humidity % | barometer mb |
| 20260508233509 | 51 | 352 | 0.0 | 0.0 | 0.00 | 0.00 | 0.00 | 42 | 1037.4 |
| 20260508233006 | 51 | 351 | 0.0 | 0.0 | 0.00 | 0.00 | 0.00 | 43 | 1037.4 |
| 20260508232503 | 51 | 349 | 0.0 | 0.0 | 0.00 | 0.00 | 0.00 | 42 | 1037.4 |
| 20260508231959 | 51 | 331 | 0.0 | 0.0 | 0.00 | 0.00 | 0.00 | 43 | 1037.4 |
| 20260508231457 | 51 | 330 | 0.0 | 0.0 | 0.00 | 0.00 | 0.00 | 41 | 1037.2 |
| 20260508230954 | 52 | 337 | 0.0 | 0.0 | 0.00 | 0.00 | 0.00 | 41 | 1037.3 |
| 20260508230450 | 52 | 337 | 0.0 | 0.0 | 0.00 | 0.00 | 0.00 | 39 | 1037.3 |
| 20260508225947 | 52 | 341 | 0.0 | 0.0 | 0.00 | 0.00 | 0.00 | 40 | 1037.1 |
| 20260508225444 | 52 | 331 | 0.0 | 0.0 | 0.00 | 0.00 | 0.00 | 40 | 1037.1 |
| 20260508224941 | 52 | 326 | 0.0 | 0.0 | 0.00 | 0.00 | 0.00 | 39 | 1037.1 |
| 20260508224439 | 52 | 321 | 1.0 | 1.0 | 0.00 | 0.00 | 0.00 | 38 | 1037.1 |
| 20260508223936 | 53 | 336 | 0.0 | 0.0 | 0.00 | 0.00 | 0.00 | 40 | 1037.1 |
| 20260508223434 | 53 | 347 | 0.0 | 0.0 | 0.00 | 0.00 | 0.00 | 38 | 1037.1 |
| 20260508222931 | 53 | 331 | 0.0 | 0.0 | 0.00 | 0.00 | 0.00 | 38 | 1037.1 |
| 20260508222429 | 53 | 324 | 1.0 | 2.0 | 0.00 | 0.00 | 0.00 | 36 | 1036.9 |
| 20260508221925 | 54 | 325 | 1.0 | 2.0 | 0.00 | 0.00 | 0.00 | 36 | 1036.9 |
| 20260508221421 | 55 | 321 | 1.0 | 1.0 | 0.00 | 0.00 | 0.00 | 34 | 1036.8 |
| 20260508220917 | 57 | 29 | 3.0 | 3.0 | 0.00 | 0.00 | 0.00 | 32 | 1036.8 |
| 20260508220414 | 56 | 314 | 1.0 | 1.0 | 0.00 | 0.00 | 0.00 | 33 | 1036.6 |
| 20260508215910 | 56 | 314 | 0.0 | 0.0 | 0.00 | 0.00 | 0.00 | 35 | 1036.7 |
| 20260508215407 | 55 | 341 | 0.0 | 0.0 | 0.00 | 0.00 | 0.00 | 37 | 1036.7 |
| 20260508214903 | 54 | 321 | 1.0 | 1.0 | 0.00 | 0.00 | 0.00 | 35 | 1036.7 |
| 20260508214401 | 55 | 315 | 1.0 | 1.0 | 0.00 | 0.00 | 0.00 | 36 | 1036.6 |
| 20260508213857 | 55 | 334 | 0.0 | 0.0 | 0.00 | 0.00 | 0.00 | 35 | 1036.7 |
| 20260508213355 | 55 | 323 | 1.0 | 1.0 | 0.00 | 0.00 | 0.00 | 37 | 1036.7 |
| 20260508212850 | 55 | 335 | 1.0 | 2.0 | 0.00 | 0.00 | 0.00 | 35 | 1036.7 |
| 20260508212347 | 54 | 319 | 0.0 | 1.0 | 0.00 | 0.00 | 0.00 | 37 | 1036.7 |
| 20260508211842 | 55 | 199 | 1.0 | 2.0 | 0.00 | 0.00 | 0.00 | 37 | 1036.6 |
| 20260508211338 | 54 | 327 | 0.0 | 0.0 | 0.00 | 0.00 | 0.00 | 37 | 1036.6 |
| 20260508210836 | 54 | 308 | 1.0 | 2.0 | 0.00 | 0.00 | 0.00 | 38 | 1036.6 |
| 20260508210333 | 54 | 325 | 0.0 | 1.0 | 0.00 | 0.00 | 0.00 | 40 | 1036.7 |
| 20260508205829 | 55 | 309 | 1.0 | 1.0 | 0.00 | 0.00 | 0.00 | 37 | 1036.8 |
| 20260508205326 | 56 | 334 | 1.0 | 1.0 | 0.00 | 0.00 | 0.00 | 36 | 1036.5 |
| 20260508204817 | 58 | 322 | 0.0 | 1.0 | 0.00 | 0.00 | 0.00 | 35 | 1036.6 |
| 20260508204314 | 58 | 333 | 0.0 | 0.0 | 0.00 | 0.00 | 0.00 | 35 | 1036.4 |
| 20260508203810 | 56 | 329 | 0.0 | 0.0 | 0.00 | 0.00 | 0.00 | 36 | 1036.5 |
| 20260508203306 | 55 | 326 | 0.0 | 0.0 | 0.00 | 0.00 | 0.00 | 37 | 1036.3 |
| 20260508202802 | 56 | 22 | 2.0 | 2.0 | 0.00 | 0.00 | 0.00 | 35 | 1036.2 |
| 20260508202259 | 56 | 302 | 3.0 | 3.0 | 0.00 | 0.00 | 0.00 | 37 | 1036.4 |
| 20260508201756 | 56 | 349 | 1.0 | 1.0 | 0.00 | 0.00 | 0.00 | 36 | 1036.2 |
| 20260508201253 | 55 | 324 | 0.0 | 0.0 | 0.00 | 0.00 | 0.00 | 38 | 1036.4 |
| 20260508200750 | 53 | 319 | 1.0 | 1.0 | 0.00 | 0.00 | 0.00 | 42 | 1036.5 |
| 20260508200246 | 53 | 4 | 0.0 | 1.0 | 0.00 | 0.00 | 0.00 | 39 | 1036.5 |
| 20260508195742 | 53 | 335 | 0.0 | 0.0 | 0.00 | 0.00 | 0.00 | 44 | 1036.2 |
| 20260508195239 | 52 | 326 | 0.0 | 0.0 | 0.00 | 0.00 | 0.00 | 43 | 1036.4 |
| 20260508194735 | 52 | 31 | 0.0 | 1.0 | 0.00 | 0.00 | 0.00 | 40 | 1036.5 |
| 20260508194232 | 52 | 332 | 0.0 | 0.0 | 0.00 | 0.00 | 0.00 | 40 | 1036.4 |
| 20260508193730 | 53 | 323 | 0.0 | 0.0 | 0.00 | 0.00 | 0.00 | 39 | 1036.3 |
| 20260508193226 | 53 | 332 | 0.0 | 1.0 | 0.00 | 0.00 | 0.00 | 38 | 1036.4 |
| 20260508192722 | 54 | 311 | 2.0 | 2.0 | 0.00 | 0.00 | 0.00 | 39 | 1036.1 |
| 20260508192220 | 54 | 317 | 1.0 | 1.0 | 0.00 | 0.00 | 0.00 | 39 | 1036.6 |
| 20260508191717 | 56 | 305 | 1.0 | 2.0 | 0.00 | 0.00 | 0.00 | 39 | 1036.4 |
| 20260508191214 | 56 | 350 | 0.0 | 1.0 | 0.00 | 0.00 | 0.00 | 35 | 1036.1 |
| 20260508190711 | 56 | 307 | 1.0 | 1.0 | 0.00 | 0.00 | 0.00 | 39 | 1036.2 |
| 20260508190207 | 54 | 337 | 1.0 | 1.0 | 0.00 | 0.00 | 0.00 | 38 | 1036.3 |
| 20260508185704 | 53 | 34 | 0.0 | 1.0 | 0.00 | 0.00 | 0.00 | 41 | 1036.4 |
| 20260508185201 | 54 | 285 | 2.0 | 3.0 | 0.00 | 0.00 | 0.00 | 39 | 1036.5 |
| 20260508184658 | 56 | 159 | 1.0 | 2.0 | 0.00 | 0.00 | 0.00 | 37 | 1036.5 |
| 20260508184156 | 53 | 330 | 0.0 | 0.0 | 0.00 | 0.00 | 0.00 | 41 | 1036.4 |
| 20260508183652 | 53 | 299 | 1.0 | 1.0 | 0.00 | 0.00 | 0.00 | 41 | 1036.5 |
| 20260508183148 | 52 | 333 | 0.0 | 0.0 | 0.00 | 0.00 | 0.00 | 43 | 1036.5 |
| 20260508182644 | 52 | 314 | 1.0 | 1.0 | 0.00 | 0.00 | 0.00 | 44 | 1036.6 |
| 20260508182141 | 52 | 292 | 2.0 | 2.0 | 0.00 | 0.00 | 0.00 | 43 | 1036.5 |
| 20260508181636 | 52 | 324 | 0.0 | 0.0 | 0.00 | 0.00 | 0.00 | 46 | 1036.6 |
| 20260508181134 | 51 | 324 | 0.0 | 1.0 | 0.00 | 0.00 | 0.00 | 42 | 1036.6 |
| 20260508180631 | 52 | 323 | 0.0 | 0.0 | 0.00 | 0.00 | 0.00 | 44 | 1036.8 |
| 20260508180128 | 52 | 323 | 0.0 | 0.0 | 0.00 | 0.00 | 0.00 | 43 | 1036.6 |
| 20260508175624 | 52 | 310 | 1.0 | 1.0 | 0.00 | 0.00 | 0.00 | 44 | 1036.7 |
| 20260508175121 | 53 | 278 | 1.0 | 1.0 | 0.00 | 0.00 | 0.00 | 42 | 1036.8 |
| 20260508174619 | 52 | 283 | 0.0 | 1.0 | 0.00 | 0.00 | 0.00 | 43 | 1036.7 |
| 20260508174115 | 52 | 290 | 1.0 | 2.0 | 0.00 | 0.00 | 0.00 | 46 | 1036.9 |
| 20260508173612 | 51 | 306 | 2.0 | 2.0 | 0.00 | 0.00 | 0.00 | 44 | 1036.8 |
| 20260508173108 | 52 | 317 | 2.0 | 3.0 | 0.00 | 0.00 | 0.00 | 44 | 1036.8 |
| 20260508172606 | 52 | 326 | 0.0 | 0.0 | 0.00 | 0.00 | 0.00 | 43 | 1036.8 |
| 20260508172102 | 52 | 331 | 0.0 | 0.0 | 0.00 | 0.00 | 0.00 | 44 | 1036.8 |
| 20260508171559 | 51 | 259 | 2.0 | 2.0 | 0.00 | 0.00 | 0.00 | 44 | 1036.8 |
| 20260508171055 | 51 | 317 | 1.0 | 1.0 | 0.00 | 0.00 | 0.00 | 45 | 1036.8 |
| 20260508170553 | 50 | 319 | 1.0 | 1.0 | 0.00 | 0.00 | 0.00 | 47 | 1037.0 |
| 20260508170050 | 50 | 311 | 0.0 | 1.0 | 0.00 | 0.00 | 0.00 | 44 | 1037.0 |
| 20260508165547 | 51 | 309 | 0.0 | 1.0 | 0.00 | 0.00 | 0.00 | 45 | 1036.8 |
| 20260508165044 | 51 | 324 | 0.0 | 1.0 | 0.00 | 0.00 | 0.00 | 45 | 1037.1 |
| 20260508164540 | 51 | 316 | 1.0 | 1.0 | 0.00 | 0.00 | 0.00 | 43 | 1036.9 |
| 20260508164037 | 51 | 327 | 0.0 | 1.0 | 0.00 | 0.00 | 0.00 | 47 | 1036.9 |
| 20260508163534 | 51 | 304 | 1.0 | 1.0 | 0.00 | 0.00 | 0.00 | 44 | 1036.9 |
| 20260508163031 | 51 | 323 | 0.0 | 1.0 | 0.00 | 0.00 | 0.00 | 46 | 1037.1 |
| 20260508162528 | 51 | 307 | 1.0 | 1.0 | 0.00 | 0.00 | 0.00 | 46 | 1037.0 |
| 20260508162025 | 50 | 317 | 1.0 | 1.0 | 0.00 | 0.00 | 0.00 | 46 | 1036.9 |
| 20260508161522 | 51 | 331 | 3.0 | 5.0 | 0.00 | 0.00 | 0.00 | 44 | 1036.8 |
| 20260508161019 | 51 | 313 | 3.0 | 3.0 | 0.00 | 0.00 | 0.00 | 45 | 1036.9 |
| 20260508160518 | 51 | 300 | 1.0 | 2.0 | 0.00 | 0.00 | 0.00 | 47 | 1036.6 |
| 20260508160014 | 51 | 265 | 4.0 | 5.0 | 0.00 | 0.00 | 0.00 | 43 | 1036.7 |
| 20260508155511 | 51 | 298 | 2.0 | 2.0 | 0.00 | 0.00 | 0.00 | 42 | 1036.6 |
| 20260508155008 | 51 | 291 | 2.0 | 2.0 | 0.00 | 0.00 | 0.00 | 45 | 1036.6 |
| 20260508154506 | 51 | 275 | 2.0 | 2.0 | 0.00 | 0.00 | 0.00 | 41 | 1036.6 |
| 20260508154002 | 52 | 299 | 1.0 | 2.0 | 0.00 | 0.00 | 0.00 | 43 | 1036.2 |
| 20260508153459 | 52 | 305 | 0.0 | 1.0 | 0.00 | 0.00 | 0.00 | 43 | 1036.4 |
| 20260508152955 | 52 | 308 | 1.0 | 1.0 | 0.00 | 0.00 | 0.00 | 41 | 1036.1 |
| 20260508152452 | 53 | 351 | 1.0 | 1.0 | 0.00 | 0.00 | 0.00 | 40 | 1036.3 |
| 20260508151948 | 51 | 298 | 1.0 | 2.0 | 0.00 | 0.00 | 0.00 | 44 | 1036.3 |
| 20260508151445 | 51 | 315 | 1.0 | 1.0 | 0.00 | 0.00 | 0.00 | 43 | 1036.5 |
| 20260508150941 | 52 | 293 | 1.0 | 2.0 | 0.00 | 0.00 | 0.00 | 43 | 1036.5 |
| 20260508150438 | 51 | 308 | 1.0 | 1.0 | 0.00 | 0.00 | 0.00 | 44 | 1036.4 |
| 20260508145934 | 52 | 302 | 1.0 | 1.0 | 0.00 | 0.00 | 0.00 | 42 | 1036.6 |
| 20260508145431 | 51 | 317 | 1.0 | 1.0 | 0.00 | 0.00 | 0.00 | 43 | 1036.5 |
| 20260508144927 | 51 | 296 | 2.0 | 3.0 | 0.00 | 0.00 | 0.00 | 42 | 1036.3 |
| 20260508144425 | 51 | 329 | 0.0 | 0.0 | 0.00 | 0.00 | 0.00 | 42 | 1036.4 |
| 20260508143923 | 51 | 323 | 0.0 | 1.0 | 0.00 | 0.00 | 0.00 | 45 | 1036.2 |
| 20260508143420 | 50 | 246 | 3.0 | 3.0 | 0.00 | 0.00 | 0.00 | 42 | 1036.2 |
| 20260508142916 | 51 | 323 | 0.0 | 0.0 | 0.00 | 0.00 | 0.00 | 44 | 1036.3 |
| 20260508142414 | 49 | 317 | 1.0 | 1.0 | 0.00 | 0.00 | 0.00 | 44 | 1036.2 |
| 20260508141910 | 50 | 301 | 2.0 | 2.0 | 0.00 | 0.00 | 0.00 | 41 | 1036.1 |
| 20260508141406 | 50 | 326 | 1.0 | 1.0 | 0.00 | 0.00 | 0.00 | 40 | 1036.2 |
| 20260508140904 | 51 | 314 | 1.0 | 1.0 | 0.00 | 0.00 | 0.00 | 40 | 1036.2 |
| 20260508140401 | 51 | 314 | 0.0 | 1.0 | 0.00 | 0.00 | 0.00 | 41 | 1036.2 |
| 20260508135856 | 51 | 278 | 3.0 | 5.0 | 0.00 | 0.00 | 0.00 | 37 | 1036.2 |
| 20260508135353 | 51 | 321 | 1.0 | 2.0 | 0.00 | 0.00 | 0.00 | 38 | 1036.3 |
| 20260508134849 | 51 | 291 | 3.0 | 3.0 | 0.00 | 0.00 | 0.00 | 36 | 1036.2 |
| 20260508134346 | 51 | 317 | 1.0 | 2.0 | 0.00 | 0.00 | 0.00 | 39 | 1035.8 |
| 20260508133843 | 51 | 295 | 1.0 | 2.0 | 0.00 | 0.00 | 0.00 | 38 | 1036.1 |
| 20260508133341 | 51 | 338 | 0.0 | 0.0 | 0.00 | 0.00 | 0.00 | 38 | 1036.3 |
| 20260508132837 | 51 | 339 | 2.0 | 2.0 | 0.00 | 0.00 | 0.00 | 39 | 1036.2 |
| 20260508132335 | 50 | 283 | 5.0 | 6.0 | 0.00 | 0.00 | 0.00 | 41 | 1036.1 |
| 20260508131832 | 49 | 320 | 0.0 | 1.0 | 0.00 | 0.00 | 0.00 | 42 | 1036.4 |
| 20260508131327 | 48 | 265 | 2.0 | 3.0 | 0.00 | 0.00 | 0.00 | 49 | 1036.2 |
| 20260508130824 | 48 | 325 | 0.0 | 0.0 | 0.00 | 0.00 | 0.00 | 56 | 1036.3 |
| 20260508130321 | 47 | 291 | 1.0 | 1.0 | 0.00 | 0.00 | 0.00 | 54 | 1036.4 |
| 20260508125817 | 46 | 325 | 1.0 | 1.0 | 0.00 | 0.00 | 0.00 | 58 | 1036.2 |
| 20260508125314 | 46 | 2 | 0.0 | 0.0 | 0.00 | 0.00 | 0.00 | 61 | 1036.2 |
| 20260508124812 | 45 | 351 | 0.0 | 0.0 | 0.00 | 0.00 | 0.00 | 65 | 1036.3 |
| 20260508124309 | 44 | 337 | 0.0 | 0.0 | 0.00 | 0.00 | 0.00 | 66 | 1036.6 |
| 20260508123807 | 44 | 355 | 0.0 | 0.0 | 0.00 | 0.00 | 0.00 | 67 | 1036.4 |
| 20260508123305 | 43 | 354 | 0.0 | 0.0 | 0.00 | 0.00 | 0.00 | 71 | 1036.4 |
| 20260508122801 | 42 | 355 | 0.0 | 0.0 | 0.00 | 0.00 | 0.00 | 71 | 1036.3 |
| 20260508122258 | 42 | 341 | 0.0 | 0.0 | 0.00 | 0.00 | 0.00 | 72 | 1036.4 |
| 20260508121755 | 42 | 329 | 0.0 | 0.0 | 0.00 | 0.00 | 0.00 | 71 | 1036.3 |
| 20260508121254 | 42 | 4 | 0.0 | 0.0 | 0.00 | 0.00 | 0.00 | 72 | 1036.1 |
| 20260508120750 | 41 | 5 | 0.0 | 0.0 | 0.00 | 0.00 | 0.00 | 73 | 1036.5 |
| 20260508120249 | 41 | 5 | 0.0 | 0.0 | 0.00 | 0.00 | 0.00 | 76 | 1036.4 |
| 20260508115746 | 41 | 5 | 0.0 | 0.0 | 0.00 | 0.00 | 0.00 | 74 | 1036.3 |
| 20260508115243 | 40 | 6 | 0.0 | 0.0 | 0.00 | 0.00 | 0.00 | 76 | 1036.2 |
| 20260508114739 | 40 | 6 | 0.0 | 0.0 | 0.00 | 0.00 | 0.00 | 77 | 1036.3 |
| 20260508114236 | 39 | 357 | 0.0 | 0.0 | 0.00 | 0.00 | 0.00 | 80 | 1036.1 |
| 20260508113732 | 39 | 15 | 1.0 | 1.0 | 0.00 | 0.00 | 0.00 | 82 | 1036.1 |
| 20260508113231 | 37 | 4 | 0.0 | 0.0 | 0.00 | 0.00 | 0.00 | 85 | 1036.0 |
| 20260508112727 | 36 | 1 | 0.0 | 0.0 | 0.00 | 0.00 | 0.00 | 86 | 1036.0 |
| 20260508112224 | 36 | 1 | 0.0 | 1.0 | 0.00 | 0.00 | 0.00 | 88 | 1036.0 |
| 20260508111720 | 36 | 1 | 0.0 | 0.0 | 0.00 | 0.00 | 0.00 | 89 | 1036.1 |
| 20260508111219 | 35 | 1 | 0.0 | 0.0 | 0.00 | 0.00 | 0.00 | 89 | 1036.0 |
| 20260508110715 | 34 | 1 | 0.0 | 0.0 | 0.00 | 0.00 | 0.00 | 91 | 1036.2 |
| 20260508110212 | 34 | 1 | 0.0 | 0.0 | 0.00 | 0.00 | 0.00 | 92 | 1035.8 |
| 20260508105712 | 34 | 1 | 0.0 | 0.0 | 0.00 | 0.00 | 0.00 | 93 | 1035.7 |
| 20260508105209 | 33 | 1 | 0.0 | 0.0 | 0.00 | 0.00 | 0.00 | 94 | 1035.8 |
| 20260508104707 | 33 | 1 | 0.0 | 0.0 | 0.00 | 0.00 | 0.00 | 94 | 1035.7 |
| 20260508104203 | 32 | 1 | 0.0 | 0.0 | 0.00 | 0.00 | 0.00 | 94 | 1035.8 |
| 20260508103701 | 32 | 1 | 0.0 | 0.0 | 0.00 | 0.00 | 0.00 | 94 | 1035.8 |
| 20260508103158 | 32 | 1 | 0.0 | 0.0 | 0.00 | 0.00 | 0.00 | 94 | 1035.7 |
| 20260508102655 | 32 | 1 | 0.0 | 0.0 | 0.00 | 0.00 | 0.00 | 94 | 1035.5 |
| 20260508102153 | 32 | 1 | 0.0 | 0.0 | 0.00 | 0.00 | 0.00 | 94 | 1035.7 |
| 20260508101649 | 32 | 2 | 0.0 | 0.0 | 0.00 | 0.00 | 0.00 | 94 | 1035.5 |
| 20260508101148 | 32 | 0 | 0.0 | 0.0 | 0.00 | 0.00 | 0.00 | 94 | 1035.5 |
| 20260508100644 | 31 | 0 | 0.0 | 0.0 | 0.00 | 0.00 | 0.00 | 94 | 1035.4 |
| 20260508100143 | 32 | 0 | 0.0 | 0.0 | 0.00 | 0.00 | 0.00 | 94 | 1035.3 |
| 20260508095639 | 31 | 0 | 0.0 | 0.0 | 0.00 | 0.00 | 0.00 | 94 | 1035.3 |
| 20260508095136 | 31 | 0 | 0.0 | 0.0 | 0.00 | 0.00 | 0.00 | 94 | 1035.4 |
| 20260508094633 | 31 | 0 | 0.0 | 0.0 | 0.00 | 0.00 | 0.00 | 94 | 1035.3 |
| 20260508094129 | 31 | 0 | 0.0 | 0.0 | 0.00 | 0.00 | 0.00 | 94 | 1035.2 |
| 20260508093627 | 31 | 0 | 0.0 | 0.0 | 0.00 | 0.00 | 0.00 | 93 | 1035.1 |
| 20260508093124 | 31 | 0 | 0.0 | 0.0 | 0.00 | 0.00 | 0.00 | 93 | 1035.1 |
| 20260508092621 | 32 | 0 | 0.0 | 0.0 | 0.00 | 0.00 | 0.00 | 93 | 1035.0 |
| 20260508092120 | 32 | 0 | 0.0 | 0.0 | 0.00 | 0.00 | 0.00 | 93 | 1035.0 |
| 20260508091617 | 31 | 0 | 0.0 | 0.0 | 0.00 | 0.00 | 0.00 | 93 | 1035.1 |
| 20260508091114 | 31 | 0 | 0.0 | 0.0 | 0.00 | 0.00 | 0.00 | 93 | 1035.1 |
| 20260508090612 | 31 | 0 | 0.0 | 0.0 | 0.00 | 0.00 | 0.00 | 93 | 1035.1 |
| 20260508090109 | 32 | 0 | 0.0 | 0.0 | 0.00 | 0.00 | 0.00 | 93 | 1035.2 |
| 20260508085605 | 31 | 0 | 0.0 | 0.0 | 0.00 | 0.00 | 0.00 | 92 | 1035.0 |
| 20260508085102 | 32 | 0 | 0.0 | 0.0 | 0.00 | 0.00 | 0.00 | 92 | 1035.0 |
| 20260508084558 | 32 | 0 | 0.0 | 0.0 | 0.00 | 0.00 | 0.00 | 92 | 1035.0 |
| 20260508084056 | 32 | 0 | 0.0 | 0.0 | 0.00 | 0.00 | 0.00 | 92 | 1035.0 |
| 20260508083553 | 32 | 0 | 0.0 | 0.0 | 0.00 | 0.00 | 0.00 | 92 | 1034.8 |
| 20260508083050 | 32 | 0 | 0.0 | 0.0 | 0.00 | 0.00 | 0.00 | 92 | 1035.0 |
| 20260508082546 | 32 | 359 | 0.0 | 0.0 | 0.00 | 0.00 | 0.00 | 92 | 1034.8 |
| 20260508082043 | 32 | 359 | 0.0 | 0.0 | 0.00 | 0.00 | 0.00 | 92 | 1034.7 |
| 20260508081541 | 32 | 359 | 0.0 | 0.0 | 0.00 | 0.00 | 0.00 | 92 | 1034.7 |
| 20260508081036 | 32 | 359 | 0.0 | 0.0 | 0.00 | 0.00 | 0.00 | 92 | 1034.6 |
| 20260508080535 | 32 | 359 | 0.0 | 0.0 | 0.00 | 0.00 | 0.00 | 92 | 1034.7 |
| 20260508080032 | 32 | 359 | 0.0 | 0.0 | 0.00 | 0.00 | 0.00 | 92 | 1034.7 |
| 20260508075528 | 32 | 359 | 0.0 | 0.0 | 0.00 | 0.00 | 0.00 | 91 | 1034.6 |
| 20260508075026 | 33 | 359 | 0.0 | 0.0 | 0.00 | 0.00 | 0.00 | 91 | 1034.3 |
| 20260508074523 | 33 | 359 | 0.0 | 0.0 | 0.00 | 0.00 | 0.00 | 91 | 1034.3 |
| 20260508074020 | 33 | 359 | 0.0 | 0.0 | 0.00 | 0.00 | 0.00 | 91 | 1034.4 |
| 20260508073517 | 33 | 359 | 0.0 | 0.0 | 0.00 | 0.00 | 0.00 | 91 | 1034.4 |
| 20260508073015 | 33 | 359 | 0.0 | 0.0 | 0.00 | 0.00 | 0.00 | 91 | 1034.3 |
| 20260508072510 | 33 | 359 | 0.0 | 0.0 | 0.00 | 0.00 | 0.00 | 91 | 1034.4 |
| 20260508072008 | 33 | 359 | 0.0 | 0.0 | 0.00 | 0.00 | 0.00 | 90 | 1034.3 |
| 20260508071505 | 33 | 359 | 0.0 | 0.0 | 0.00 | 0.00 | 0.00 | 90 | 1034.5 |
| 20260508071003 | 33 | 359 | 0.0 | 0.0 | 0.00 | 0.00 | 0.00 | 89 | 1034.5 |
| 20260508070500 | 33 | 359 | 0.0 | 0.0 | 0.00 | 0.00 | 0.00 | 89 | 1034.6 |
| 20260508065958 | 34 | 359 | 0.0 | 0.0 | 0.00 | 0.00 | 0.00 | 89 | 1034.6 |
| 20260508065456 | 34 | 0 | 0.0 | 0.0 | 0.00 | 0.00 | 0.00 | 89 | 1034.6 |
| 20260508064954 | 34 | 0 | 0.0 | 0.0 | 0.00 | 0.00 | 0.00 | 88 | 1034.6 |
| 20260508064451 | 34 | 0 | 0.0 | 0.0 | 0.00 | 0.00 | 0.00 | 88 | 1034.6 |
| 20260508063949 | 34 | 356 | 0.0 | 0.0 | 0.00 | 0.00 | 0.00 | 88 | 1034.5 |
| 20260508063446 | 34 | 356 | 0.0 | 0.0 | 0.00 | 0.00 | 0.00 | 87 | 1034.7 |
| 20260508062944 | 34 | 356 | 0.0 | 0.0 | 0.00 | 0.00 | 0.00 | 87 | 1034.7 |
| 20260508062441 | 35 | 356 | 0.0 | 0.0 | 0.00 | 0.00 | 0.00 | 86 | 1034.5 |
| 20260508061938 | 35 | 356 | 0.0 | 0.0 | 0.00 | 0.00 | 0.00 | 86 | 1034.7 |
| 20260508061436 | 35 | 356 | 0.0 | 0.0 | 0.00 | 0.00 | 0.00 | 85 | 1034.5 |
| 20260508060932 | 35 | 356 | 0.0 | 0.0 | 0.00 | 0.00 | 0.00 | 85 | 1034.7 |
| 20260508060429 | 35 | 356 | 0.0 | 0.0 | 0.00 | 0.00 | 0.00 | 85 | 1034.8 |
| 20260508055925 | 35 | 356 | 0.0 | 0.0 | 0.00 | 0.00 | 0.00 | 86 | 1034.6 |
| 20260508055422 | 35 | 356 | 0.0 | 0.0 | 0.00 | 0.00 | 0.00 | 85 | 1034.6 |
| 20260508054918 | 36 | 356 | 0.0 | 0.0 | 0.00 | 0.00 | 0.00 | 85 | 1034.5 |
| 20260508054416 | 36 | 356 | 0.0 | 0.0 | 0.00 | 0.00 | 0.00 | 85 | 1034.8 |
| 20260508053913 | 36 | 356 | 0.0 | 0.0 | 0.00 | 0.00 | 0.00 | 83 | 1034.9 |
| 20260508053410 | 35 | 356 | 0.0 | 0.0 | 0.00 | 0.00 | 0.00 | 83 | 1035.0 |
| 20260508052908 | 36 | 356 | 0.0 | 0.0 | 0.00 | 0.00 | 0.00 | 83 | 1035.0 |
| 20260508052405 | 36 | 356 | 0.0 | 0.0 | 0.00 | 0.00 | 0.00 | 84 | 1035.1 |
| 20260508051901 | 36 | 356 | 0.0 | 0.0 | 0.00 | 0.00 | 0.00 | 83 | 1035.1 |
| 20260508051357 | 36 | 356 | 0.0 | 0.0 | 0.00 | 0.00 | 0.00 | 84 | 1035.1 |
| 20260508050853 | 37 | 356 | 0.0 | 0.0 | 0.00 | 0.00 | 0.00 | 83 | 1035.2 |
| 20260508050350 | 37 | 356 | 0.0 | 0.0 | 0.00 | 0.00 | 0.00 | 83 | 1035.2 |
| 20260508045845 | 37 | 356 | 0.0 | 0.0 | 0.00 | 0.00 | 0.00 | 82 | 1035.2 |
| 20260508045344 | 37 | 356 | 0.0 | 0.0 | 0.00 | 0.00 | 0.00 | 82 | 1035.1 |
| 20260508044841 | 37 | 356 | 0.0 | 0.0 | 0.00 | 0.00 | 0.00 | 80 | 1035.1 |
| 20260508044337 | 37 | 356 | 0.0 | 0.0 | 0.00 | 0.00 | 0.00 | 80 | 1035.2 |
| 20260508043833 | 37 | 356 | 0.0 | 0.0 | 0.00 | 0.00 | 0.00 | 80 | 1035.1 |
| 20260508043331 | 37 | 356 | 0.0 | 0.0 | 0.00 | 0.00 | 0.00 | 80 | 1035.1 |
| 20260508042827 | 37 | 356 | 0.0 | 0.0 | 0.00 | 0.00 | 0.00 | 80 | 1035.1 |
| 20260508042325 | 38 | 356 | 0.0 | 0.0 | 0.00 | 0.00 | 0.00 | 79 | 1035.3 |
| 20260508041821 | 38 | 356 | 0.0 | 0.0 | 0.00 | 0.00 | 0.00 | 79 | 1035.1 |
| 20260508041318 | 38 | 356 | 0.0 | 0.0 | 0.00 | 0.00 | 0.00 | 79 | 1035.4 |
| 20260508040814 | 38 | 356 | 0.0 | 0.0 | 0.00 | 0.00 | 0.00 | 77 | 1035.5 |
| 20260508040312 | 38 | 356 | 0.0 | 0.0 | 0.00 | 0.00 | 0.00 | 76 | 1035.4 |
| 20260508035809 | 38 | 356 | 0.0 | 0.0 | 0.00 | 0.00 | 0.00 | 75 | 1035.3 |
| 20260508035307 | 38 | 356 | 0.0 | 0.0 | 0.00 | 0.00 | 0.00 | 75 | 1035.4 |
| 20260508034803 | 39 | 356 | 0.0 | 0.0 | 0.00 | 0.00 | 0.00 | 75 | 1035.4 |
| 20260508034300 | 39 | 356 | 0.0 | 0.0 | 0.00 | 0.00 | 0.00 | 75 | 1035.3 |
| 20260508033757 | 39 | 356 | 0.0 | 0.0 | 0.00 | 0.00 | 0.00 | 75 | 1035.3 |
| 20260508033255 | 39 | 356 | 0.0 | 0.0 | 0.00 | 0.00 | 0.00 | 75 | 1035.2 |
| 20260508032753 | 40 | 356 | 0.0 | 0.0 | 0.00 | 0.00 | 0.00 | 73 | 1035.3 |
| 20260508032250 | 40 | 356 | 0.0 | 0.0 | 0.00 | 0.00 | 0.00 | 73 | 1035.2 |
| 20260508031746 | 40 | 356 | 0.0 | 0.0 | 0.00 | 0.00 | 0.00 | 73 | 1035.1 |
| 20260508031243 | 40 | 356 | 0.0 | 0.0 | 0.00 | 0.00 | 0.00 | 71 | 1035.2 |
| 20260508030739 | 41 | 356 | 0.0 | 0.0 | 0.00 | 0.00 | 0.00 | 71 | 1035.2 |
| 20260508030237 | 41 | 356 | 0.0 | 0.0 | 0.00 | 0.00 | 0.00 | 70 | 1035.2 |
| 20260508025733 | 41 | 356 | 0.0 | 0.0 | 0.00 | 0.00 | 0.00 | 69 | 1035.3 |
| 20260508025230 | 42 | 356 | 0.0 | 0.0 | 0.00 | 0.00 | 0.00 | 68 | 1035.3 |
| 20260508024726 | 42 | 356 | 0.0 | 0.0 | 0.00 | 0.00 | 0.00 | 67 | 1035.2 |
| 20260508024223 | 42 | 356 | 0.0 | 0.0 | 0.00 | 0.00 | 0.00 | 67 | 1035.1 |
| 20260508023720 | 42 | 356 | 0.0 | 0.0 | 0.00 | 0.00 | 0.00 | 65 | 1035.2 |
| 20260508023218 | 42 | 356 | 0.0 | 0.0 | 0.00 | 0.00 | 0.00 | 62 | 1035.1 |
| 20260508022713 | 43 | 356 | 0.0 | 0.0 | 0.00 | 0.00 | 0.00 | 63 | 1035.1 |
| 20260508022210 | 43 | 356 | 0.0 | 0.0 | 0.00 | 0.00 | 0.00 | 63 | 1035.3 |
| 20260508021707 | 44 | 356 | 0.0 | 0.0 | 0.00 | 0.00 | 0.00 | 63 | 1035.2 |
| 20260508021202 | 44 | 356 | 0.0 | 0.0 | 0.00 | 0.00 | 0.00 | 58 | 1035.0 |
| 20260508020700 | 44 | 356 | 0.0 | 0.0 | 0.00 | 0.00 | 0.00 | 57 | 1034.9 |
| 20260508020157 | 44 | 356 | 0.0 | 0.0 | 0.00 | 0.00 | 0.00 | 59 | 1035.0 |
| 20260508015654 | 44 | 356 | 0.0 | 0.0 | 0.00 | 0.00 | 0.00 | 59 | 1034.9 |
| 20260508015151 | 44 | 356 | 0.0 | 0.0 | 0.00 | 0.00 | 0.00 | 59 | 1034.9 |
| 20260508014648 | 45 | 356 | 0.0 | 0.0 | 0.00 | 0.00 | 0.00 | 58 | 1034.8 |
| 20260508014143 | 45 | 356 | 0.0 | 0.0 | 0.00 | 0.00 | 0.00 | 56 | 1034.7 |
| 20260508013640 | 45 | 356 | 0.0 | 0.0 | 0.00 | 0.00 | 0.00 | 56 | 1034.7 |
| 20260508013137 | 46 | 356 | 0.0 | 0.0 | 0.00 | 0.00 | 0.00 | 55 | 1034.9 |
| 20260508012635 | 46 | 356 | 0.0 | 0.0 | 0.00 | 0.00 | 0.00 | 52 | 1034.9 |
| 20260508012132 | 47 | 356 | 0.0 | 0.0 | 0.00 | 0.00 | 0.00 | 51 | 1035.0 |
| 20260508011630 | 47 | 356 | 0.0 | 0.0 | 0.00 | 0.00 | 0.00 | 51 | 1034.8 |
| 20260508011127 | 47 | 356 | 0.0 | 0.0 | 0.00 | 0.00 | 0.00 | 53 | 1034.8 |
| 20260508010623 | 48 | 356 | 0.0 | 0.0 | 0.00 | 0.00 | 0.00 | 49 | 1034.7 |
| 20260508010122 | 48 | 356 | 0.0 | 0.0 | 0.00 | 0.00 | 0.00 | 50 | 1034.7 |
| 20260508005619 | 48 | 357 | 0.0 | 0.0 | 0.00 | 0.00 | 0.00 | 51 | 1034.5 |
| 20260508005114 | 48 | 358 | 0.0 | 0.0 | 0.00 | 0.00 | 0.00 | 50 | 1034.5 |
| 20260508004610 | 49 | 354 | 0.0 | 0.0 | 0.00 | 0.00 | 0.00 | 49 | 1034.4 |
| 20260508004108 | 49 | 341 | 0.0 | 0.0 | 0.00 | 0.00 | 0.00 | 47 | 1034.4 |
| 20260508003604 | 49 | 349 | 0.0 | 0.0 | 0.00 | 0.00 | 0.00 | 47 | 1034.3 |
| 20260508003102 | 50 | 348 | 0.0 | 0.0 | 0.00 | 0.00 | 0.00 | 46 | 1034.3 |
| 20260508002558 | 50 | 341 | 0.0 | 0.0 | 0.00 | 0.00 | 0.00 | 47 | 1034.2 |
| 20260508002055 | 50 | 21 | 1.0 | 2.0 | 0.00 | 0.00 | 0.00 | 45 | 1033.9 |
| 20260508001550 | 50 | 93 | 1.0 | 2.0 | 0.00 | 0.00 | 0.00 | 44 | 1033.9 |
| 20260508001047 | 50 | 22 | 1.0 | 1.0 | 0.00 | 0.00 | 0.00 | 46 | 1034.0 |
| 20260508000543 | 51 | 7 | 1.0 | 1.0 | 0.00 | 0.00 | 0.00 | 46 | 1033.7 |
| 20260508000040 | 51 | 356 | 0.0 | 0.0 | 0.00 | 0.00 | 0.00 | 42 | 1033.8 |
| 20260507235537 | 51 | 335 | 1.0 | 2.0 | 0.00 | 0.00 | 0.00 | 43 | 1033.9 |
| 20260507235035 | 52 | 343 | 1.0 | 1.0 | 0.00 | 0.00 | 0.00 | 42 | 1033.6 |
| 20260507234531 | 52 | 332 | 0.0 | 0.0 | 0.00 | 0.00 | 0.00 | 41 | 1033.6 |
| 20260507234027 | 52 | 301 | 0.0 | 1.0 | 0.00 | 0.00 | 0.00 | 40 | 1033.6 |